PBO Station Position Time Series. Reference Frame : NAM14
Format Version,1.1.0
4-character ID,SCH2
Station name,None
Begin Date, 1997-09-01
End Date, 2019-10-07
Release Date, 2019-10-08
Reference position, 54.8320899892 North Latitude, -66.8326176247 East Longitude, 498.28143 meters elevation,
Date, North (mm), East (mm), Vertical (mm), North Std. Deviation (mm), East Std. Deviation (mm),              Vertical Std. Deviation (mm), Quality,
1997-09-01,0.00, 0.00, 0.00, 2.57, 1.78, 8.20, repro,
1997-09-02,1.62, -0.13, -2.31, 2.55, 1.76, 8.22, repro,
1997-09-03,1.59, 0.02, 1.28, 3.05, 2.14, 9.37, repro,
1997-09-04,0.64, 2.19, 7.12, 3.00, 2.18, 10.13, repro,
1997-09-05,0.33, -0.34, -0.51, 2.57, 1.80, 8.45, repro,
1997-09-06,2.04, -0.24, -0.56, 2.55, 1.76, 8.18, repro,
1997-09-07,1.71, -1.05, 5.67, 2.53, 1.76, 8.04, repro,
1997-09-08,1.36, -1.05, -4.79, 2.66, 1.83, 8.41, repro,
1997-09-09,-1.12, 0.38, 7.43, 3.12, 2.15, 9.96, repro,
1997-09-10,1.06, 0.82, -2.91, 2.91, 2.12, 10.01, repro,
1997-09-11,-0.67, 0.57, -5.04, 2.70, 1.93, 9.36, repro,
1997-09-12,1.46, -0.31, -3.23, 2.90, 2.06, 9.98, repro,
1997-09-13,1.12, -0.62, -3.08, 2.60, 1.78, 8.30, repro,
1997-09-14,0.51, 0.45, 3.60, 3.23, 2.12, 9.77, repro,
1997-09-15,1.42, -1.94, 3.43, 2.64, 1.82, 8.25, repro,
1997-09-16,1.02, -0.93, 1.25, 2.56, 1.71, 8.14, repro,
1997-09-17,-0.12, 0.50, 1.31, 2.76, 1.87, 8.84, repro,
1997-09-18,-0.88, -1.02, 9.93, 3.01, 2.03, 9.73, repro,
1997-09-19,2.32, -0.47, 9.24, 2.71, 1.86, 8.78, repro,
1997-09-21,0.44, 0.01, 7.05, 3.10, 2.01, 9.43, repro,
1997-09-22,1.69, -1.19, 5.56, 2.83, 1.93, 8.92, repro,
1997-09-23,1.79, -1.01, 5.34, 2.75, 1.90, 8.96, repro,
1997-09-24,1.74, -0.15, 12.04, 2.80, 1.94, 9.07, repro,
1997-09-25,1.27, -0.68, 10.87, 2.81, 1.90, 9.23, repro,
1997-09-26,0.76, 0.69, 6.98, 2.74, 1.91, 8.79, repro,
1997-09-27,1.23, 0.30, 7.74, 2.91, 1.97, 9.24, repro,
1997-09-28,0.79, 1.70, 10.04, 3.19, 2.12, 9.90, repro,
1997-09-29,3.22, 2.45, 21.88, 2.87, 2.00, 9.25, repro,
1997-09-30,5.87, 2.54, 9.48, 2.78, 1.92, 8.78, repro,
1997-10-01,0.82, 3.63, -5.27, 2.92, 1.98, 9.04, repro,
1997-10-02,1.82, -0.16, -5.70, 3.12, 2.26, 10.37, repro,
1997-10-08,-0.26, -0.28, -12.68, 4.28, 3.11, 14.33, repro,
1997-10-09,2.83, 2.14, -6.16, 2.90, 2.04, 10.02, repro,
1997-10-10,-1.49, -4.18, -5.35, 3.67, 2.44, 11.46, repro,
1997-10-11,1.58, -2.01, -2.22, 3.15, 2.12, 9.57, repro,
1997-10-12,2.33, 0.96, -8.18, 2.59, 1.83, 8.51, repro,
1997-10-13,0.96, -1.17, -8.08, 2.56, 1.81, 8.39, repro,
1997-10-14,1.71, 3.41, -23.23, 2.66, 1.90, 9.11, repro,
1997-10-15,0.73, 2.15, -12.82, 3.02, 2.11, 9.99, repro,
1997-10-16,2.37, 2.21, -17.70, 2.63, 1.83, 8.94, repro,
1997-10-17,0.17, 2.24, -10.72, 2.81, 2.01, 9.55, repro,
1997-10-18,0.53, 3.22, -5.39, 2.74, 1.97, 8.93, repro,
1997-10-19,0.95, 2.30, -15.74, 2.71, 1.97, 9.26, repro,
1997-10-20,0.50, 1.82, -9.48, 2.60, 1.90, 9.17, repro,
1997-10-21,1.66, 2.58, -7.18, 2.75, 1.97, 9.45, repro,
1997-10-22,7.82, 7.91, -2.29, 2.72, 1.99, 9.17, repro,
1997-10-23,-0.83, -2.25, -0.95, 2.68, 1.92, 9.43, repro,
1997-10-24,-1.40, 1.30, -6.51, 2.77, 1.94, 9.30, repro,
1997-10-25,-1.36, 1.80, -7.88, 3.35, 2.29, 10.52, repro,
1997-10-26,-5.56, -2.30, -8.66, 3.03, 2.19, 9.60, repro,
1997-10-27,-3.56, 0.58, -11.21, 3.47, 2.35, 11.25, repro,
1997-10-28,-1.49, 2.09, -15.64, 2.76, 1.88, 9.16, repro,
1997-10-29,-0.12, 1.29, -5.16, 3.01, 2.20, 10.40, repro,
1997-10-30,0.47, 1.92, -10.22, 2.62, 1.92, 9.18, repro,
1997-10-31,0.44, 2.97, -9.31, 2.69, 1.98, 9.13, repro,
1997-11-01,3.22, 3.27, -24.78, 2.63, 1.89, 8.82, repro,
1997-11-02,4.04, 1.98, -10.45, 2.71, 1.91, 9.34, repro,
1997-11-03,1.67, 2.58, -13.16, 2.70, 1.95, 9.58, repro,
1997-11-04,2.30, 0.39, -10.89, 2.69, 2.00, 9.46, repro,
1997-11-05,4.42, 2.01, -24.32, 2.69, 1.99, 9.58, repro,
1997-11-06,1.05, 0.73, -17.88, 3.16, 2.38, 11.54, repro,
1997-11-07,2.57, 3.96, -5.92, 3.43, 2.58, 11.89, repro,
1997-11-08,5.15, 1.17, -12.27, 2.79, 1.99, 9.11, repro,
1997-11-09,3.31, 1.82, -19.29, 2.65, 1.92, 8.77, repro,
1997-11-10,1.75, 0.31, -18.60, 3.19, 2.20, 10.55, repro,
1997-11-11,4.68, 3.45, -17.42, 2.80, 2.05, 9.53, repro,
1997-11-12,1.65, 2.54, -8.31, 2.67, 2.16, 9.56, repro,
1997-11-13,3.23, 7.78, -25.01, 2.84, 2.12, 9.42, repro,
1997-11-14,1.98, 1.86, -23.37, 2.82, 2.07, 10.16, repro,
1997-11-15,0.51, 4.09, -13.98, 2.82, 2.02, 10.00, repro,
1997-11-16,1.18, 3.48, -9.30, 2.54, 1.86, 9.05, repro,
1997-11-17,4.60, 3.83, -18.90, 3.31, 2.50, 11.08, repro,
1997-11-18,4.01, 2.98, -24.29, 2.94, 2.19, 10.45, repro,
1997-11-19,2.76, 4.82, -16.23, 2.66, 1.96, 9.32, repro,
1997-11-20,0.11, 2.22, -7.01, 2.91, 2.06, 9.93, repro,
1997-11-21,6.33, 4.24, -20.58, 2.73, 2.03, 9.91, repro,
1997-11-22,2.59, 3.88, -15.36, 3.27, 2.42, 11.32, repro,
1997-11-23,2.28, 1.13, -6.95, 3.16, 2.35, 10.97, repro,
1997-11-24,4.75, 2.01, -13.74, 3.44, 2.40, 11.54, repro,
1997-11-25,8.06, 6.57, -16.78, 2.94, 2.09, 10.05, repro,
1997-11-26,6.53, 7.83, -13.65, 3.00, 2.06, 10.32, repro,
1997-11-27,6.22, 6.68, -9.44, 3.01, 2.21, 10.16, repro,
1997-11-28,5.41, 8.68, -19.94, 2.77, 1.99, 9.43, repro,
1997-11-29,8.83, 7.52, -28.71, 2.67, 1.93, 9.08, repro,
1997-11-30,8.82, 5.14, -6.62, 2.62, 1.79, 8.34, repro,
1997-12-01,7.86, 6.43, -25.15, 2.74, 1.96, 9.33, repro,
1997-12-02,5.79, 7.14, -16.39, 2.58, 1.85, 8.86, repro,
1997-12-03,6.52, 7.36, -15.87, 2.79, 1.95, 9.49, repro,
1997-12-04,5.81, 8.36, -0.61, 2.67, 1.90, 9.45, repro,
1997-12-05,5.13, 12.82, -12.33, 2.86, 2.03, 8.95, repro,
1997-12-06,3.20, 10.58, -6.19, 2.67, 1.87, 9.02, repro,
1997-12-07,3.44, 9.98, -2.13, 2.53, 1.81, 8.62, repro,
1997-12-08,2.96, 11.00, -12.81, 2.66, 1.94, 9.44, repro,
1997-12-09,0.69, 8.81, 0.32, 2.53, 1.76, 8.21, repro,
1997-12-10,1.60, 9.79, -7.32, 2.80, 2.00, 9.87, repro,
1997-12-11,0.99, 10.51, -12.69, 2.90, 2.13, 10.19, repro,
1997-12-12,2.88, 9.15, 1.77, 2.57, 1.84, 8.90, repro,
1997-12-13,2.52, 7.35, 9.29, 2.54, 1.79, 8.74, repro,
1997-12-14,2.22, 7.42, -0.69, 2.55, 1.83, 9.03, repro,
1997-12-15,1.90, 6.84, 5.49, 2.68, 1.87, 9.16, repro,
1997-12-16,1.52, 6.14, 3.51, 2.49, 1.82, 8.79, repro,
1997-12-17,3.16, 5.60, -3.50, 2.55, 1.87, 8.95, repro,
1997-12-18,1.70, 3.67, -7.45, 2.89, 2.10, 9.65, repro,
1997-12-19,0.91, 0.28, -3.04, 2.66, 1.97, 8.99, repro,
1997-12-20,1.30, -1.13, 5.79, 2.89, 2.21, 10.12, repro,
1997-12-21,3.85, -0.33, -13.35, 2.70, 1.98, 9.49, repro,
1997-12-22,4.27, -0.40, -7.64, 2.65, 1.92, 9.11, repro,
1997-12-23,3.27, -0.05, -9.22, 2.63, 1.91, 9.00, repro,
1997-12-24,1.22, 1.66, -10.49, 2.69, 1.95, 9.57, repro,
1997-12-25,5.21, -1.19, -6.42, 3.16, 2.33, 11.41, repro,
1997-12-26,3.52, -1.95, -4.38, 2.83, 2.18, 10.19, repro,
1997-12-27,4.66, -2.67, -5.45, 2.59, 1.97, 9.37, repro,
1997-12-28,4.24, -0.81, -1.47, 2.65, 1.94, 9.00, repro,
1997-12-29,1.86, -2.00, 2.84, 2.73, 2.05, 9.90, repro,
1997-12-30,4.09, -4.44, 7.63, 2.93, 2.11, 10.27, repro,
1997-12-31,4.38, -5.32, 8.85, 2.63, 1.93, 8.74, repro,
1998-01-01,4.32, -2.81, -3.30, 2.76, 2.03, 10.15, repro,
1998-01-02,2.45, -2.16, 0.90, 2.71, 1.96, 9.26, repro,
1998-01-03,5.46, -3.66, -0.21, 2.61, 1.92, 9.04, repro,
1998-01-04,5.99, -0.13, -9.21, 2.56, 1.82, 8.42, repro,
1998-01-05,6.51, 2.30, -7.86, 2.55, 1.83, 8.51, repro,
1998-01-06,6.26, 0.41, -12.75, 2.81, 1.96, 9.02, repro,
1998-01-07,8.46, 0.47, -22.38, 3.39, 2.47, 11.49, repro,
1998-01-08,5.99, 1.83, -9.19, 2.95, 2.22, 10.11, repro,
1998-01-09,8.58, 1.61, -15.34, 2.74, 2.03, 9.17, repro,
1998-01-10,8.14, 2.86, -7.49, 2.81, 2.17, 10.21, repro,
1998-01-11,7.24, 2.78, -5.33, 2.90, 2.26, 10.68, repro,
1998-01-12,6.59, 1.80, -6.20, 2.74, 2.05, 9.39, repro,
1998-01-13,6.80, 2.79, -8.26, 2.79, 2.06, 9.42, repro,
1998-01-14,6.49, 2.00, -7.17, 2.66, 1.96, 9.18, repro,
1998-01-15,5.91, 3.99, -14.76, 2.84, 2.15, 10.01, repro,
1998-01-16,6.13, 1.49, -14.40, 2.76, 2.01, 9.76, repro,
1998-01-17,6.75, 1.20, -19.66, 2.66, 1.96, 8.93, repro,
1998-01-18,5.60, -0.51, -13.23, 2.64, 1.98, 9.01, repro,
1998-01-19,4.32, 0.72, -13.03, 2.55, 1.81, 8.37, repro,
1998-01-20,6.18, 1.34, -2.83, 2.51, 1.80, 8.46, repro,
1998-01-21,4.28, 1.07, -8.18, 2.72, 2.10, 9.22, repro,
1998-01-22,4.26, 0.22, -8.56, 2.53, 1.79, 8.11, repro,
1998-01-23,3.91, 0.40, -12.45, 2.58, 1.82, 8.30, repro,
1998-01-24,4.34, 2.96, -5.17, 2.51, 1.81, 8.05, repro,
1998-01-25,5.60, 3.28, -9.35, 2.88, 2.23, 10.30, repro,
1998-01-26,3.06, -0.08, 0.35, 2.52, 1.82, 8.18, repro,
1998-01-27,5.44, 2.54, 4.10, 2.54, 1.82, 8.18, repro,
1998-01-28,6.55, 4.55, -3.32, 2.70, 1.92, 8.73, repro,
1998-01-29,4.21, 2.40, -2.76, 2.54, 1.82, 8.29, repro,
1998-01-30,5.07, 0.98, -7.46, 3.02, 2.31, 10.79, repro,
1998-01-31,5.37, 0.35, -6.00, 2.69, 1.92, 8.49, repro,
1998-02-01,3.98, 0.46, -6.36, 2.60, 1.88, 8.43, repro,
1998-02-02,3.48, -0.56, -13.66, 2.56, 1.84, 8.20, repro,
1998-02-03,3.21, 0.20, -6.63, 2.47, 1.75, 8.00, repro,
1998-02-04,3.00, -0.37, -9.23, 2.55, 1.85, 8.44, repro,
1998-02-05,1.40, 0.05, -9.37, 2.55, 1.85, 8.46, repro,
1998-02-06,1.82, -1.47, -8.12, 2.63, 1.84, 8.38, repro,
1998-02-07,1.20, -1.48, -7.41, 2.62, 1.88, 8.39, repro,
1998-02-08,0.36, -1.78, -12.88, 2.68, 1.89, 8.58, repro,
1998-02-09,1.85, 1.39, -9.58, 2.60, 1.84, 8.41, repro,
1998-02-10,3.39, 0.82, -9.15, 2.70, 1.88, 8.89, repro,
1998-02-11,2.98, 2.76, -5.03, 2.65, 1.83, 8.38, repro,
1998-02-12,6.86, 2.23, -7.52, 2.65, 1.90, 8.83, repro,
1998-02-13,5.66, -0.52, -1.07, 2.59, 1.84, 8.24, repro,
1998-02-14,3.84, -0.54, -7.67, 2.63, 1.87, 8.65, repro,
1998-02-15,2.05, -1.11, -20.52, 2.51, 1.81, 8.23, repro,
1998-02-16,1.29, -1.56, -16.63, 2.50, 1.80, 8.18, repro,
1998-02-17,2.63, -1.29, -15.98, 2.99, 2.20, 9.67, repro,
1998-02-18,3.23, -0.47, -19.45, 3.19, 2.36, 11.29, repro,
1998-02-19,2.51, 1.02, 1.08, 2.92, 2.03, 9.22, repro,
1998-02-20,4.89, -1.66, -5.44, 2.79, 2.03, 9.01, repro,
1998-02-21,4.78, -0.75, -1.92, 2.75, 1.96, 8.70, repro,
1998-02-22,2.90, 1.73, 5.21, 2.68, 1.88, 8.60, repro,
1998-02-23,2.35, -0.59, -2.22, 2.51, 1.80, 8.18, repro,
1998-02-24,2.31, -0.16, -2.83, 2.55, 1.85, 8.33, repro,
1998-02-25,4.05, 2.38, -4.37, 2.48, 1.82, 8.19, repro,
1998-02-26,5.90, 2.82, -19.52, 2.63, 1.91, 8.78, repro,
1998-02-27,4.57, 1.16, -24.13, 2.61, 1.88, 8.42, repro,
1998-02-28,4.60, 0.68, -22.68, 2.59, 1.83, 8.31, repro,
1998-03-01,3.91, 3.44, -20.02, 2.56, 1.83, 8.32, repro,
1998-03-02,7.58, 1.96, -18.25, 2.75, 1.96, 9.13, repro,
1998-03-03,5.19, 1.02, -24.34, 2.62, 1.90, 8.47, repro,
1998-03-04,6.31, 2.22, -22.08, 2.39, 1.74, 8.19, repro,
1998-03-05,5.77, -0.05, -15.20, 2.43, 1.72, 7.94, repro,
1998-03-06,3.91, -1.78, -10.19, 2.42, 1.73, 7.83, repro,
1998-03-07,2.95, -1.10, -14.44, 2.51, 1.78, 8.14, repro,
1998-03-08,2.82, -2.97, -13.43, 2.59, 1.84, 8.24, repro,
1998-03-09,4.61, -0.65, -9.78, 2.46, 1.78, 7.98, repro,
1998-03-10,6.11, -0.26, -9.34, 3.13, 2.25, 9.67, repro,
1998-03-11,5.81, -2.66, -17.69, 2.82, 2.05, 9.33, repro,
1998-03-12,8.09, -0.23, -29.75, 2.82, 2.12, 9.49, repro,
1998-03-13,8.05, 1.14, -27.29, 3.07, 2.29, 10.65, repro,
1998-03-14,5.29, -0.87, -22.79, 2.44, 1.75, 7.85, repro,
1998-03-15,5.87, 1.71, -26.03, 2.82, 2.05, 9.35, repro,
1998-03-16,7.53, -2.35, -18.07, 3.30, 2.29, 10.94, repro,
1998-03-17,6.30, 0.76, -22.57, 3.06, 2.10, 9.90, repro,
1998-03-18,4.21, 0.49, -13.34, 2.47, 1.78, 8.00, repro,
1998-03-19,4.72, -0.15, -14.99, 2.42, 1.74, 7.85, repro,
1998-03-20,3.93, 1.01, -7.85, 2.69, 1.91, 8.60, repro,
1998-03-21,2.11, 1.41, -5.41, 2.72, 1.94, 9.07, repro,
1998-03-22,3.16, -0.03, -12.35, 2.47, 1.79, 8.00, repro,
1998-03-23,3.77, 0.57, -1.75, 2.53, 1.84, 8.11, repro,
1998-03-24,3.15, 0.60, -7.69, 2.51, 1.83, 8.37, repro,
1998-03-25,3.45, 1.19, -9.31, 3.27, 2.40, 10.65, repro,
1998-03-26,2.77, 1.55, -4.60, 2.54, 1.79, 8.17, repro,
1998-03-27,4.78, 1.79, 2.16, 3.18, 2.23, 10.39, repro,
1998-03-28,4.35, 1.82, -3.57, 2.62, 1.86, 8.40, repro,
1998-03-29,4.78, 0.57, -0.02, 2.69, 1.96, 8.98, repro,
1998-03-30,3.39, -0.34, -1.57, 2.61, 1.85, 8.34, repro,
1998-03-31,4.47, 0.80, -4.98, 3.04, 2.02, 9.67, repro,
1998-04-01,3.54, 1.57, -8.61, 2.61, 1.83, 8.42, repro,
1998-04-02,2.87, 0.91, -5.64, 2.65, 1.88, 8.76, repro,
1998-04-03,3.21, 0.22, -8.40, 2.67, 1.89, 8.50, repro,
1998-04-04,9.15, -2.17, -1.59, 3.19, 2.14, 10.11, repro,
1998-04-05,3.80, 0.65, -8.54, 2.67, 1.84, 8.38, repro,
1998-04-06,5.48, -0.29, -8.40, 2.73, 1.88, 8.43, repro,
1998-04-07,4.69, -0.61, -18.36, 2.87, 1.97, 9.09, repro,
1998-04-08,7.05, 0.68, -16.22, 2.71, 1.92, 8.70, repro,
1998-04-09,5.27, 0.70, -9.28, 2.67, 1.86, 8.62, repro,
1998-04-10,5.48, 3.52, -17.34, 2.76, 1.89, 8.73, repro,
1998-04-11,4.21, 1.98, -4.96, 3.08, 2.27, 9.98, repro,
1998-04-12,3.77, 0.83, -15.35, 2.84, 1.96, 8.84, repro,
1998-04-13,4.01, 1.63, -9.64, 2.61, 1.82, 8.34, repro,
1998-04-14,4.07, 1.39, -13.11, 2.54, 1.77, 8.17, repro,
1998-04-15,4.56, 2.01, -5.70, 2.62, 1.82, 8.48, repro,
1998-04-16,4.71, 1.45, -9.31, 2.67, 1.85, 8.48, repro,
1998-04-17,4.18, 1.88, -2.61, 2.61, 1.83, 8.32, repro,
1998-04-18,2.62, 2.08, -5.96, 2.98, 2.03, 9.09, repro,
1998-04-19,6.47, -4.40, -4.12, 2.76, 1.91, 8.75, repro,
1998-04-20,4.22, 0.94, -6.17, 2.60, 1.78, 8.23, repro,
1998-04-21,2.65, 1.15, -2.33, 2.57, 1.81, 8.46, repro,
1998-04-22,2.32, 1.34, -13.03, 2.95, 2.00, 9.12, repro,
1998-04-23,4.22, 2.50, -20.03, 2.40, 1.77, 8.21, repro,
1998-04-24,5.04, 0.89, -3.27, 3.36, 2.34, 11.15, repro,
1998-04-25,3.35, 0.38, -5.15, 2.59, 1.80, 8.24, repro,
1998-04-26,5.21, 0.47, -6.73, 3.48, 2.31, 10.95, repro,
1998-04-27,1.84, 0.67, -12.90, 2.47, 1.76, 8.17, repro,
1998-04-28,3.48, 0.07, -14.02, 3.10, 2.06, 9.28, repro,
1998-04-29,4.37, 1.49, -9.32, 2.84, 2.00, 9.37, repro,
1998-04-30,3.47, -0.96, -10.12, 2.45, 1.73, 7.98, repro,
1998-05-01,3.74, 0.23, -11.65, 2.43, 1.79, 8.03, repro,
1998-05-02,6.71, 2.44, -16.93, 2.96, 2.11, 9.87, repro,
1998-05-03,3.38, 1.32, -6.60, 3.16, 2.26, 10.68, repro,
1998-05-04,3.30, 2.54, -9.14, 3.76, 2.43, 12.69, repro,
1998-05-05,3.09, 0.57, -9.21, 3.07, 2.00, 9.70, repro,
1998-05-06,-0.24, -2.14, -22.87, 2.50, 1.78, 8.12, repro,
1998-05-07,1.28, 0.06, -14.28, 2.52, 1.77, 8.16, repro,
1998-05-08,2.24, 1.51, -7.13, 2.61, 1.89, 8.83, repro,
1998-05-09,3.47, 0.62, -2.44, 2.84, 1.94, 9.53, repro,
1998-05-10,3.43, -0.11, -7.72, 2.65, 1.87, 8.78, repro,
1998-05-11,3.48, 1.37, -5.77, 2.51, 1.82, 8.49, repro,
1998-05-12,2.55, 1.01, -7.55, 2.69, 1.86, 8.62, repro,
1998-05-13,2.46, -0.67, -6.57, 2.46, 1.75, 8.10, repro,
1998-05-14,3.91, 0.79, -5.95, 2.48, 1.76, 8.13, repro,
1998-05-15,2.46, 0.96, -2.42, 2.47, 1.75, 8.11, repro,
1998-05-16,3.22, 1.92, -10.69, 2.45, 1.73, 8.18, repro,
1998-05-17,2.84, 1.26, -3.30, 2.48, 1.76, 8.11, repro,
1998-05-18,3.71, 1.35, 0.55, 2.52, 1.80, 8.24, repro,
1998-05-19,3.04, 0.87, -4.20, 2.45, 1.74, 7.97, repro,
1998-05-20,4.18, 1.77, 2.17, 2.44, 1.74, 7.99, repro,
1998-05-21,7.29, -2.08, -8.21, 3.23, 2.21, 11.04, repro,
1998-05-22,3.47, 1.67, -9.37, 2.51, 1.79, 8.22, repro,
1998-05-23,2.22, 1.28, -0.10, 2.65, 1.95, 8.55, repro,
1998-05-24,5.90, -0.14, -5.45, 2.91, 1.99, 9.44, repro,
1998-05-25,3.06, 0.20, -0.18, 2.52, 1.78, 8.18, repro,
1998-05-26,4.32, 0.33, -3.25, 2.56, 1.77, 8.39, repro,
1998-05-27,1.45, 1.43, -3.37, 2.54, 1.77, 8.41, repro,
1998-05-28,3.10, 0.95, 1.21, 2.47, 1.74, 8.08, repro,
1998-05-29,4.80, -0.27, -3.54, 2.46, 1.76, 8.02, repro,
1998-05-30,7.43, -4.06, 1.52, 2.84, 1.99, 9.01, repro,
1998-05-31,4.00, -0.10, 0.12, 2.51, 1.78, 8.20, repro,
1998-06-01,3.08, -0.27, 5.27, 2.48, 1.75, 7.98, repro,
1998-06-02,5.06, -0.37, 1.62, 2.67, 1.92, 8.70, repro,
1998-06-03,4.02, -0.50, 2.74, 2.50, 1.78, 8.17, repro,
1998-06-04,4.44, -0.28, 7.91, 2.99, 2.08, 9.91, repro,
1998-06-05,4.91, 0.85, -1.69, 2.98, 2.06, 9.74, repro,
1998-06-06,4.94, 0.47, 2.07, 2.56, 1.83, 8.40, repro,
1998-06-07,3.39, 0.01, 4.17, 2.84, 1.99, 9.58, repro,
1998-06-08,7.17, 2.27, -8.81, 2.52, 1.81, 8.51, repro,
1998-06-09,2.55, -0.24, -0.44, 2.50, 1.79, 8.15, repro,
1998-06-10,2.32, -1.38, -6.22, 2.65, 1.90, 8.73, repro,
1998-06-11,1.16, 0.36, 1.93, 2.58, 1.82, 8.29, repro,
1998-06-12,2.78, 0.40, 1.40, 2.53, 1.77, 8.26, repro,
1998-06-13,0.05, 0.39, 3.67, 2.47, 1.75, 8.05, repro,
1998-06-14,2.57, 0.78, 7.81, 2.79, 1.96, 9.22, repro,
1998-06-15,3.53, 0.51, 4.14, 2.70, 1.87, 8.52, repro,
1998-06-16,2.70, 1.63, -2.58, 2.70, 1.91, 8.61, repro,
1998-06-17,1.62, 1.59, -1.04, 2.46, 1.72, 7.94, repro,
1998-06-18,2.60, -0.20, 0.15, 2.49, 1.77, 8.05, repro,
1998-06-19,1.84, -1.02, 2.32, 2.57, 1.82, 8.28, repro,
1998-06-20,2.05, 0.87, 5.52, 2.55, 1.84, 8.35, repro,
1998-06-21,0.42, -0.14, 8.30, 2.62, 1.86, 8.55, repro,
1998-06-22,2.89, 1.15, -5.48, 3.40, 2.34, 10.41, repro,
1998-06-23,1.84, -0.12, -29.89, 6.37, 3.56, 17.24, repro,
1998-06-24,1.74, -0.92, 7.42, 2.61, 1.84, 8.43, repro,
1998-06-25,0.82, -0.43, 6.66, 2.49, 1.77, 8.07, repro,
1998-06-26,4.29, 1.10, -5.48, 2.98, 2.14, 9.66, repro,
1998-06-27,2.08, -1.16, -2.92, 2.56, 1.82, 8.13, repro,
1998-06-28,1.19, 0.64, -0.62, 2.50, 1.76, 8.12, repro,
1998-06-29,1.41, -1.00, 1.24, 2.51, 1.76, 7.95, repro,
1998-06-30,3.22, -0.81, 1.66, 2.45, 1.75, 7.89, repro,
1998-07-01,2.78, -1.46, 2.13, 2.52, 1.81, 8.30, repro,
1998-07-02,2.73, -1.68, 6.75, 2.52, 1.81, 8.21, repro,
1998-07-03,1.84, -1.18, 1.11, 2.52, 1.77, 8.08, repro,
1998-07-04,3.26, -1.92, 3.57, 2.66, 1.92, 8.60, repro,
1998-07-05,1.78, -1.75, 3.10, 2.93, 2.21, 10.02, repro,
1998-07-06,1.19, 1.16, -0.93, 2.79, 2.01, 9.44, repro,
1998-07-07,1.36, 0.85, 3.35, 2.49, 1.77, 8.11, repro,
1998-07-08,3.81, 0.09, 0.87, 2.47, 1.76, 7.99, repro,
1998-07-09,2.62, 0.25, -0.49, 2.49, 1.73, 8.02, repro,
1998-07-10,1.70, -0.28, 2.75, 2.52, 1.75, 8.13, repro,
1998-07-11,1.78, 0.42, 4.47, 2.49, 1.76, 8.10, repro,
1998-07-12,1.87, -1.80, 2.40, 2.49, 1.75, 8.12, repro,
1998-07-13,1.35, 1.22, 6.53, 2.82, 2.02, 9.32, repro,
1998-07-14,1.71, 1.28, -3.99, 2.95, 2.12, 10.03, repro,
1998-07-15,2.52, -0.07, 6.48, 2.48, 1.75, 7.99, repro,
1998-07-16,4.02, -0.58, 10.06, 2.85, 1.98, 9.42, repro,
1998-07-17,2.89, -0.21, 7.89, 2.58, 1.81, 8.41, repro,
1998-07-18,3.10, -0.04, 15.76, 2.47, 1.74, 7.99, repro,
1998-07-19,1.85, -0.00, 9.40, 2.43, 1.70, 7.87, repro,
1998-07-20,2.34, 0.31, 9.85, 2.58, 1.80, 8.21, repro,
1998-07-21,2.73, -0.57, 10.14, 2.88, 1.95, 9.18, repro,
1998-07-22,1.44, 1.11, 12.73, 2.68, 1.93, 8.82, repro,
1998-07-23,2.38, -3.77, 10.85, 3.01, 2.12, 9.83, repro,
1998-07-24,3.29, -0.92, 8.01, 2.85, 1.96, 9.31, repro,
1998-07-25,1.19, 1.05, 7.96, 2.48, 1.72, 8.02, repro,
1998-07-26,0.40, 0.34, 8.27, 2.43, 1.70, 7.88, repro,
1998-07-27,1.11, -0.18, 5.74, 2.48, 1.73, 8.12, repro,
1998-07-28,0.05, -1.04, 5.87, 2.50, 1.77, 8.13, repro,
1998-07-29,1.26, 2.88, 18.81, 2.44, 1.71, 7.98, repro,
1998-07-30,0.49, 0.20, 9.61, 2.46, 1.73, 7.95, repro,
1998-07-31,-0.32, -1.49, 11.14, 3.60, 2.34, 11.11, repro,
1998-08-01,0.82, -0.90, 4.59, 2.57, 1.78, 8.43, repro,
1998-08-02,1.59, -1.31, 6.09, 2.43, 1.70, 7.92, repro,
1998-08-03,0.25, 1.03, 5.38, 2.49, 1.74, 8.05, repro,
1998-08-04,2.34, 0.51, 4.72, 2.57, 1.75, 8.04, repro,
1998-08-05,0.78, 0.43, 6.44, 2.56, 1.75, 8.11, repro,
1998-08-06,0.90, 0.61, 6.89, 3.29, 2.17, 10.29, repro,
1998-08-07,0.26, 1.14, 14.65, 2.73, 1.94, 9.20, repro,
1998-08-08,0.16, 0.85, 9.28, 2.43, 1.71, 7.90, repro,
1998-08-09,0.78, 1.26, 18.14, 2.53, 1.78, 8.08, repro,
1998-08-10,-1.25, -1.95, 8.13, 2.55, 1.80, 8.23, repro,
1998-08-11,0.77, -0.62, 6.36, 2.43, 1.72, 7.82, repro,
1998-08-12,0.30, 0.96, 4.29, 2.87, 1.98, 8.95, repro,
1998-08-13,-1.21, -1.39, 9.03, 2.50, 1.82, 8.81, repro,
1998-08-14,0.62, -0.78, 15.29, 2.51, 1.79, 8.22, repro,
1998-08-15,2.81, 0.56, 7.34, 2.60, 1.86, 8.59, repro,
1998-08-16,2.18, 0.35, -1.13, 2.49, 1.74, 8.04, repro,
1998-08-17,-0.44, -0.29, 3.87, 2.44, 1.74, 7.92, repro,
1998-08-18,-1.73, -2.19, 11.79, 2.47, 1.75, 8.00, repro,
1998-08-19,0.28, 0.09, 5.86, 2.46, 1.76, 8.25, repro,
1998-08-20,0.18, -0.11, 3.77, 2.96, 2.03, 9.94, repro,
1998-08-21,-1.00, -0.51, 7.30, 2.51, 1.77, 8.17, repro,
1998-08-22,-0.69, -1.62, -0.00, 2.72, 1.93, 8.84, repro,
1998-08-23,-1.69, -2.00, 4.85, 2.81, 1.96, 9.06, repro,
1998-08-24,1.02, -1.38, 8.76, 2.49, 1.79, 8.07, repro,
1998-08-25,0.74, 0.42, 7.89, 2.66, 1.82, 8.40, repro,
1998-08-26,1.97, -0.06, 6.15, 2.55, 1.83, 8.40, repro,
1998-08-27,-1.91, 0.61, -5.33, 4.77, 2.88, 13.43, repro,
1998-08-28,0.70, -1.32, 2.75, 2.76, 1.90, 8.71, repro,
1998-08-29,-1.68, 1.50, 7.21, 2.88, 2.15, 9.52, repro,
1998-08-30,-0.25, 1.25, 9.75, 2.59, 1.87, 8.51, repro,
1998-08-31,2.04, 0.50, 9.75, 2.80, 1.91, 8.68, repro,
1998-09-01,-0.81, -1.56, 7.10, 2.91, 2.16, 9.94, repro,
1998-09-02,0.02, 0.15, 4.11, 2.47, 1.73, 8.05, repro,
1998-09-03,0.43, 0.65, -0.14, 2.48, 1.77, 8.05, repro,
1998-09-04,0.29, 0.01, 2.84, 2.49, 1.73, 8.06, repro,
1998-09-05,0.92, 0.74, 8.18, 2.50, 1.76, 8.28, repro,
1998-09-06,0.95, 0.11, 8.46, 2.53, 1.79, 8.36, repro,
1998-09-07,1.53, -1.16, 8.76, 2.51, 1.77, 8.03, repro,
1998-09-08,3.71, 1.23, 7.62, 2.97, 2.07, 9.53, repro,
1998-09-09,-0.10, 1.09, 13.77, 2.87, 2.05, 9.28, repro,
1998-09-10,0.26, 0.68, 8.00, 2.47, 1.73, 8.06, repro,
1998-09-11,0.34, 0.67, 8.17, 2.46, 1.75, 8.27, repro,
1998-09-12,1.81, -0.27, 9.99, 2.78, 1.93, 8.77, repro,
1998-09-13,2.13, 1.37, 7.06, 2.47, 1.71, 8.09, repro,
1998-09-14,1.88, 1.82, 1.82, 2.48, 1.79, 8.34, repro,
1998-09-15,0.61, 0.82, 4.97, 2.46, 1.76, 8.02, repro,
1998-09-16,2.44, 1.88, 5.79, 2.43, 1.72, 7.87, repro,
1998-09-17,0.90, 0.31, 9.88, 2.53, 1.80, 8.30, repro,
1998-09-18,0.02, 0.10, 7.96, 2.50, 1.80, 8.40, repro,
1998-09-19,2.53, 0.44, 7.64, 3.09, 2.19, 10.62, repro,
1998-09-20,3.42, 1.93, 7.33, 2.51, 1.78, 8.06, repro,
1998-09-21,2.04, 0.83, 4.75, 2.50, 1.76, 8.08, repro,
1998-09-22,0.57, -0.20, -2.34, 2.79, 1.98, 9.23, repro,
1998-09-23,0.88, 2.55, 4.56, 2.59, 1.87, 8.88, repro,
1998-09-24,3.02, 0.50, 14.25, 2.88, 2.10, 9.91, repro,
1998-09-25,2.30, 0.32, 11.25, 3.71, 2.51, 12.26, repro,
1998-09-26,2.93, 2.02, 9.40, 3.17, 2.15, 9.54, repro,
1998-09-27,0.94, 0.16, 12.44, 2.48, 1.75, 8.06, repro,
1998-09-28,1.63, 0.49, 16.37, 2.45, 1.75, 8.02, repro,
1998-09-29,1.12, -0.29, 12.56, 2.51, 1.80, 8.26, repro,
1998-09-30,2.79, 1.69, 11.79, 2.53, 1.75, 8.18, repro,
1998-10-01,1.01, -0.53, 5.89, 2.77, 1.95, 9.14, repro,
1998-10-02,-5.05, -3.67, 0.67, 4.36, 2.92, 13.93, repro,
1998-10-03,-10.79, 8.58, 47.62, 4.19, 3.09, 14.43, repro,
1998-10-04,1.75, 0.76, 0.23, 2.79, 2.01, 9.16, repro,
1998-10-05,0.89, 0.68, 0.72, 2.65, 1.89, 8.58, repro,
1998-10-06,2.15, 1.99, -10.19, 2.65, 1.87, 8.82, repro,
1998-10-07,-1.85, 0.31, 9.31, 2.81, 2.05, 9.55, repro,
1998-10-08,0.40, -2.80, -4.35, 2.64, 1.90, 8.84, repro,
1998-10-09,1.51, 0.56, -6.66, 2.85, 2.03, 9.38, repro,
1998-10-10,-0.63, -1.91, 1.26, 2.69, 1.88, 8.82, repro,
1998-10-11,2.81, -1.97, -9.99, 2.78, 1.93, 9.20, repro,
1998-10-12,1.48, 0.34, -5.31, 2.75, 1.96, 9.17, repro,
1998-10-13,1.50, -1.60, -6.10, 2.72, 1.98, 9.57, repro,
1998-10-14,0.99, -1.51, -10.95, 2.78, 2.00, 9.10, repro,
1998-10-15,-0.67, 0.60, -14.10, 2.64, 1.94, 9.10, repro,
1998-10-16,0.65, -0.46, -12.31, 2.68, 1.91, 8.69, repro,
1998-10-17,-2.01, 0.51, -6.39, 2.94, 2.12, 10.17, repro,
1998-10-18,0.81, 3.05, -3.91, 2.76, 2.00, 8.79, repro,
1998-10-19,-0.98, 3.16, 3.94, 3.48, 2.64, 11.84, repro,
1998-10-20,4.22, 3.06, -4.27, 2.91, 2.08, 9.88, repro,
1998-10-21,1.64, 0.74, -0.61, 3.23, 2.30, 11.04, repro,
1998-10-22,2.80, 0.54, 2.35, 2.70, 1.98, 9.42, repro,
1998-10-23,1.47, 0.96, -0.35, 2.94, 2.17, 10.58, repro,
1998-10-24,0.09, 0.49, -4.64, 2.92, 2.22, 10.28, repro,
1998-10-25,-0.63, 1.10, 7.11, 2.94, 2.18, 10.01, repro,
1998-10-26,-0.20, 0.21, -6.92, 2.61, 1.97, 9.27, repro,
1998-10-27,-2.82, -0.51, 5.93, 2.80, 2.04, 9.41, repro,
1998-10-28,-0.00, -2.17, -6.49, 2.64, 1.92, 9.10, repro,
1998-10-29,2.08, -0.63, -6.54, 2.88, 2.03, 9.58, repro,
1998-10-30,2.00, -0.64, -14.86, 2.66, 1.90, 9.08, repro,
1998-10-31,1.72, -0.29, -9.00, 2.56, 1.88, 8.49, repro,
1998-11-01,1.13, -0.83, -10.37, 2.73, 1.99, 9.39, repro,
1998-11-02,1.93, 0.41, -6.29, 2.66, 1.94, 8.84, repro,
1998-11-03,2.47, 4.75, -4.28, 2.78, 2.05, 9.67, repro,
1998-11-04,2.55, 4.43, 9.04, 2.68, 1.92, 9.10, repro,